Location: Unspecified
(43.4680°N, 87.1740°E)
Time: 03:48:20
(UTC+00:00)

Cosmos 2297 - Pass Details

Date: 17 April 2021
Orbit: 837 x 857 km, 71.0° (Epoch: 16 May)

Event Time Altitude Azimuth Distance (km) Brightness Sun altitude
Exits shadow 21:35:36 25° 198° (SSW) 1,658 4.8 -18.5°
Maximum altitude 21:39:03 82° 114° (ESE) 868 3.7 -18.0°
Drops below altitude 10° 21:44:47 10° 27° (NNE) 2,490 7.1 -17.2°
Sets 21:47:15 0° 26° (NNE) 3,427 7.9 -16.8°
